Powrót do katalogu

COSMOS 876

AktywnyMilitariaLEO
NORAD 9593·PAYLOAD·🇷🇺 Russia

Wystrzelony Dec 7, 1976 z Plesetsk Cosmodrome

Loading…

Następne Przeloty (najbliższe 24 godziny)

TLE

ŚwieżeSource: Space-Track

Epoka: Sep 14, 2026, 09:43 UTC

1 09593U 76118F   26257.40532708 -.00000030  00000-0 -10475-3 0  9995
2 09593  74.0276 239.0004 0047025  25.6695  46.8670 12.41329023255272

Śledź COSMOS 876 w czasie rzeczywistym z AllMySat

Download on the App Store